| time (UTC) | temp F | wind direction | speed MPH | gust MPH | rain 1hr in | rain 24hr in | rain mn in | humidity % | barometer mb |
| 20260508014151 | 56 | 8 | 9.0 | 19.0 | 0.00 | 0.00 | 0.00 | 70 | 1014.1 |
| 20260508013649 | 57 | 320 | 8.0 | 19.0 | 0.00 | 0.00 | 0.00 | 70 | 1014.1 |
| 20260508013149 | 57 | 336 | 11.0 | 17.0 | 0.00 | 0.00 | 0.00 | 70 | 1014.3 |
| 20260508012648 | 57 | 317 | 13.0 | 17.0 | 0.00 | 0.00 | 0.00 | 70 | 1014.3 |
| 20260508012149 | 57 | 334 | 11.0 | 17.0 | 0.00 | 0.00 | 0.00 | 70 | 1014.3 |
| 20260508011649 | 57 | 309 | 8.0 | 18.0 | 0.00 | 0.00 | 0.00 | 70 | 1014.3 |
| 20260508011151 | 57 | 326 | 11.0 | 18.0 | 0.00 | 0.00 | 0.00 | 70 | 1014.3 |
| 20260508010649 | 58 | 320 | 12.0 | 18.0 | 0.00 | 0.00 | 0.00 | 69 | 1014.4 |
| 20260508010149 | 58 | 319 | 11.0 | 19.0 | 0.00 | 0.00 | 0.00 | 69 | 1014.3 |
| 20260508005650 | 58 | 338 | 10.0 | 19.0 | 0.00 | 0.00 | 0.00 | 69 | 1014.3 |
| 20260508005149 | 58 | 323 | 9.0 | 19.0 | 0.00 | 0.00 | 0.00 | 69 | 1014.2 |
| 20260508004649 | 58 | 329 | 11.0 | 18.0 | 0.00 | 0.00 | 0.00 | 69 | 1014.2 |
| 20260508004151 | 58 | 324 | 10.0 | 20.0 | 0.00 | 0.00 | 0.00 | 69 | 1014.3 |
| 20260508003649 | 58 | 341 | 11.0 | 20.0 | 0.00 | 0.00 | 0.00 | 69 | 1014.5 |
| 20260508003149 | 58 | 320 | 12.0 | 20.0 | 0.00 | 0.00 | 0.00 | 69 | 1014.6 |
| 20260508002648 | 58 | 322 | 12.0 | 20.0 | 0.00 | 0.00 | 0.00 | 69 | 1014.7 |
| 20260508002149 | 58 | 324 | 13.0 | 20.0 | 0.00 | 0.00 | 0.00 | 68 | 1014.7 |
| 20260508001649 | 59 | 330 | 12.0 | 20.0 | 0.00 | 0.00 | 0.00 | 69 | 1014.6 |
| 20260508001151 | 59 | 344 | 12.0 | 19.0 | 0.00 | 0.00 | 0.00 | 68 | 1014.6 |
| 20260508000649 | 59 | 322 | 13.0 | 19.0 | 0.00 | 0.00 | 0.00 | 68 | 1014.6 |
| 20260508000149 | 59 | 327 | 9.0 | 17.0 | 0.00 | 0.00 | 0.00 | 68 | 1014.6 |
| 20260507235650 | 59 | 327 | 12.0 | 17.0 | 0.00 | 0.00 | 0.00 | 68 | 1014.6 |
| 20260507235149 | 59 | 306 | 11.0 | 19.0 | 0.00 | 0.00 | 0.00 | 68 | 1014.6 |
| 20260507234649 | 59 | 324 | 11.0 | 19.0 | 0.00 | 0.00 | 0.00 | 67 | 1014.6 |
| 20260507234151 | 59 | 330 | 11.0 | 19.0 | 0.00 | 0.00 | 0.00 | 67 | 1014.5 |
| 20260507233649 | 59 | 334 | 13.0 | 19.0 | 0.00 | 0.00 | 0.00 | 67 | 1014.6 |
| 20260507233149 | 59 | 319 | 11.0 | 19.0 | 0.00 | 0.00 | 0.00 | 67 | 1014.6 |
| 20260507232650 | 60 | 330 | 10.0 | 17.0 | 0.00 | 0.00 | 0.00 | 67 | 1014.7 |
| 20260507232149 | 59 | 327 | 8.0 | 19.0 | 0.00 | 0.00 | 0.00 | 68 | 1014.7 |
| 20260507231649 | 59 | 331 | 13.0 | 19.0 | 0.00 | 0.00 | 0.00 | 67 | 1014.9 |
| 20260507231151 | 59 | 317 | 11.0 | 19.0 | 0.00 | 0.00 | 0.00 | 67 | 1014.9 |
| 20260507230649 | 60 | 317 | 13.0 | 20.0 | 0.00 | 0.00 | 0.00 | 66 | 1014.9 |
| 20260507230149 | 60 | 317 | 11.0 | 20.0 | 0.00 | 0.00 | 0.00 | 67 | 1015.0 |
| 20260507225651 | 59 | 324 | 11.0 | 20.0 | 0.00 | 0.00 | 0.00 | 67 | 1015.1 |
| 20260507225149 | 60 | 334 | 14.0 | 19.0 | 0.00 | 0.00 | 0.00 | 67 | 1015.2 |
| 20260507224151 | 60 | 333 | 12.0 | 19.0 | 0.00 | 0.00 | 0.00 | 67 | 1015.3 |
| 20260507223649 | 60 | 327 | 12.0 | 18.0 | 0.00 | 0.00 | 0.00 | 66 | 1015.4 |
| 20260507223149 | 60 | 330 | 11.0 | 18.0 | 0.00 | 0.00 | 0.00 | 66 | 1015.4 |
| 20260507222650 | 60 | 326 | 11.0 | 18.0 | 0.00 | 0.00 | 0.00 | 66 | 1015.5 |
| 20260507222149 | 61 | 337 | 11.0 | 18.0 | 0.00 | 0.00 | 0.00 | 66 | 1015.6 |
| 20260507221649 | 61 | 324 | 11.0 | 18.0 | 0.00 | 0.00 | 0.00 | 66 | 1015.7 |
| 20260507221151 | 61 | 326 | 10.0 | 18.0 | 0.00 | 0.00 | 0.00 | 66 | 1015.7 |
| 20260507220650 | 61 | 324 | 10.0 | 18.0 | 0.00 | 0.00 | 0.00 | 66 | 1015.7 |
| 20260507220149 | 61 | 343 | 10.0 | 18.0 | 0.00 | 0.00 | 0.00 | 66 | 1015.7 |
| 20260507215650 | 62 | 336 | 12.0 | 16.0 | 0.00 | 0.00 | 0.00 | 65 | 1015.8 |
| 20260507215149 | 62 | 326 | 11.0 | 18.0 | 0.00 | 0.00 | 0.00 | 65 | 1015.8 |
| 20260507214649 | 62 | 343 | 7.0 | 18.0 | 0.00 | 0.00 | 0.00 | 67 | 1016.0 |
| 20260507214151 | 62 | 326 | 8.0 | 18.0 | 0.00 | 0.00 | 0.00 | 67 | 1016.0 |
| 20260507213649 | 61 | 337 | 13.0 | 17.0 | 0.00 | 0.00 | 0.00 | 65 | 1016.0 |
| 20260507213149 | 61 | 329 | 9.0 | 16.0 | 0.00 | 0.00 | 0.00 | 66 | 1016.0 |
| 20260507212650 | 61 | 331 | 9.0 | 18.0 | 0.00 | 0.00 | 0.00 | 66 | 1015.9 |
| 20260507212149 | 62 | 324 | 13.0 | 18.0 | 0.00 | 0.00 | 0.00 | 65 | 1015.8 |
| 20260507211649 | 62 | 333 | 11.0 | 18.0 | 0.00 | 0.00 | 0.00 | 66 | 1015.9 |
| 20260507211151 | 62 | 337 | 11.0 | 17.0 | 0.00 | 0.00 | 0.00 | 66 | 1015.9 |
| 20260507210649 | 62 | 324 | 13.0 | 17.0 | 0.00 | 0.00 | 0.00 | 66 | 1015.8 |
| 20260507210149 | 62 | 327 | 8.0 | 17.0 | 0.00 | 0.00 | 0.00 | 67 | 1015.8 |
| 20260507205650 | 62 | 350 | 11.0 | 16.0 | 0.00 | 0.00 | 0.00 | 65 | 1015.7 |
| 20260507205149 | 62 | 330 | 11.0 | 16.0 | 0.00 | 0.00 | 0.00 | 65 | 1015.6 |
| 20260507204650 | 62 | 327 | 11.0 | 16.0 | 0.00 | 0.00 | 0.00 | 65 | 1015.6 |
| 20260507204151 | 62 | 337 | 11.0 | 16.0 | 0.00 | 0.00 | 0.00 | 65 | 1015.6 |
| 20260507203649 | 62 | 333 | 10.0 | 16.0 | 0.00 | 0.00 | 0.00 | 66 | 1015.7 |
| 20260507203149 | 63 | 324 | 11.0 | 16.0 | 0.00 | 0.00 | 0.00 | 65 | 1015.7 |
| 20260507202650 | 63 | 302 | 12.0 | 16.0 | 0.00 | 0.00 | 0.00 | 64 | 1015.8 |
| 20260507202149 | 63 | 322 | 8.0 | 16.0 | 0.00 | 0.00 | 0.00 | 66 | 1015.9 |
| 20260507201152 | 63 | 333 | 9.0 | 16.0 | 0.00 | 0.00 | 0.00 | 66 | 1015.9 |
| 20260507200649 | 63 | 326 | 11.0 | 15.0 | 0.00 | 0.00 | 0.00 | 64 | 1015.9 |
| 20260507200149 | 62 | 336 | 9.0 | 15.0 | 0.00 | 0.00 | 0.00 | 66 | 1015.9 |
| 20260507195650 | 62 | 2 | 9.0 | 15.0 | 0.00 | 0.00 | 0.00 | 66 | 1015.9 |
| 20260507195150 | 62 | 320 | 11.0 | 16.0 | 0.00 | 0.00 | 0.00 | 65 | 1016.0 |
| 20260507194649 | 63 | 351 | 11.0 | 16.0 | 0.00 | 0.00 | 0.00 | 65 | 1016.0 |
| 20260507194151 | 63 | 323 | 12.0 | 16.0 | 0.00 | 0.00 | 0.00 | 65 | 1016.0 |
| 20260507193649 | 63 | 323 | 10.0 | 15.0 | 0.00 | 0.00 | 0.00 | 65 | 1016.1 |
| 20260507193151 | 63 | 289 | 10.0 | 14.0 | 0.00 | 0.00 | 0.00 | 65 | 1016.1 |
| 20260507192650 | 63 | 316 | 9.0 | 14.0 | 0.00 | 0.00 | 0.00 | 66 | 1016.1 |
| 20260507192149 | 63 | 326 | 9.0 | 14.0 | 0.00 | 0.00 | 0.00 | 66 | 1016.2 |
| 20260507191649 | 63 | 334 | 9.0 | 14.0 | 0.00 | 0.00 | 0.00 | 66 | 1016.2 |
| 20260507191151 | 63 | 326 | 8.0 | 16.0 | 0.00 | 0.00 | 0.00 | 67 | 1016.2 |
| 20260507190649 | 62 | 312 | 8.0 | 16.0 | 0.00 | 0.00 | 0.00 | 67 | 1016.2 |
| 20260507190149 | 62 | 334 | 11.0 | 16.0 | 0.00 | 0.00 | 0.00 | 66 | 1016.2 |
| 20260507185650 | 62 | 323 | 8.0 | 15.0 | 0.00 | 0.00 | 0.00 | 66 | 1016.3 |
| 20260507185149 | 62 | 322 | 7.0 | 14.0 | 0.00 | 0.00 | 0.00 | 67 | 1016.3 |
| 20260507184649 | 62 | 326 | 8.0 | 15.0 | 0.00 | 0.00 | 0.00 | 67 | 1016.3 |
| 20260507184151 | 62 | 327 | 9.0 | 15.0 | 0.00 | 0.00 | 0.00 | 68 | 1016.3 |
| 20260507183649 | 61 | 341 | 10.0 | 15.0 | 0.00 | 0.00 | 0.00 | 68 | 1016.3 |
| 20260507183149 | 61 | 333 | 11.0 | 16.0 | 0.00 | 0.00 | 0.00 | 68 | 1016.3 |
| 20260507182650 | 61 | 315 | 10.0 | 16.0 | 0.00 | 0.00 | 0.00 | 67 | 1016.4 |
| 20260507182149 | 62 | 326 | 12.0 | 16.0 | 0.00 | 0.00 | 0.00 | 67 | 1016.4 |
| 20260507181649 | 62 | 322 | 11.0 | 15.0 | 0.00 | 0.00 | 0.00 | 67 | 1016.4 |
| 20260507181151 | 61 | 327 | 9.0 | 17.0 | 0.00 | 0.00 | 0.00 | 68 | 1016.5 |
| 20260507180649 | 61 | 329 | 11.0 | 17.0 | 0.00 | 0.00 | 0.00 | 68 | 1016.5 |
| 20260507180149 | 61 | 324 | 11.0 | 17.0 | 0.00 | 0.00 | 0.00 | 67 | 1016.5 |
| 20260507175650 | 61 | 322 | 9.0 | 16.0 | 0.00 | 0.00 | 0.00 | 68 | 1016.6 |
| 20260507175149 | 61 | 320 | 10.0 | 16.0 | 0.00 | 0.00 | 0.00 | 68 | 1016.7 |
| 20260507174649 | 60 | 298 | 8.0 | 16.0 | 0.00 | 0.00 | 0.00 | 70 | 1016.6 |
| 20260507174151 | 60 | 341 | 10.0 | 16.0 | 0.00 | 0.00 | 0.00 | 69 | 1016.6 |
| 20260507173650 | 59 | 312 | 9.0 | 16.0 | 0.00 | 0.00 | 0.00 | 70 | 1016.6 |
| 20260507173149 | 58 | 341 | 8.0 | 16.0 | 0.00 | 0.00 | 0.00 | 72 | 1016.6 |
| 20260507172650 | 58 | 324 | 10.0 | 15.0 | 0.00 | 0.00 | 0.00 | 71 | 1016.7 |
| 20260507172149 | 58 | 320 | 9.0 | 15.0 | 0.00 | 0.00 | 0.00 | 71 | 1016.8 |
| 20260507171649 | 58 | 323 | 10.0 | 14.0 | 0.00 | 0.00 | 0.00 | 71 | 1016.8 |
| 20260507171151 | 58 | 340 | 9.0 | 14.0 | 0.00 | 0.00 | 0.00 | 72 | 1016.8 |
| 20260507170649 | 58 | 345 | 9.0 | 14.0 | 0.00 | 0.00 | 0.00 | 72 | 1016.8 |
| 20260507165650 | 57 | 347 | 9.0 | 14.0 | 0.00 | 0.00 | 0.00 | 72 | 1016.8 |
| 20260507165149 | 58 | 319 | 9.0 | 13.0 | 0.00 | 0.00 | 0.00 | 72 | 1016.8 |
| 20260507164649 | 57 | 341 | 8.0 | 13.0 | 0.00 | 0.00 | 0.00 | 72 | 1016.8 |
| 20260507164150 | 58 | 333 | 9.0 | 11.0 | 0.00 | 0.00 | 0.00 | 73 | 1016.9 |
| 20260507163649 | 57 | 324 | 8.0 | 11.0 | 0.00 | 0.00 | 0.00 | 73 | 1016.8 |
| 20260507163148 | 57 | 326 | 7.0 | 10.0 | 0.00 | 0.00 | 0.00 | 73 | 1016.9 |
| 20260507162649 | 57 | 344 | 6.0 | 10.0 | 0.00 | 0.00 | 0.00 | 73 | 1016.9 |
| 20260507162149 | 57 | 323 | 5.0 | 10.0 | 0.00 | 0.00 | 0.00 | 74 | 1016.9 |
| 20260507161649 | 56 | 341 | 7.0 | 9.0 | 0.00 | 0.00 | 0.00 | 75 | 1016.9 |
| 20260507161150 | 56 | 313 | 6.0 | 10.0 | 0.00 | 0.00 | 0.00 | 75 | 1016.9 |
| 20260507160648 | 55 | 309 | 4.0 | 10.0 | 0.00 | 0.00 | 0.00 | 76 | 1016.9 |
| 20260507160149 | 55 | 320 | 6.0 | 10.0 | 0.00 | 0.00 | 0.00 | 76 | 1016.9 |
| 20260507155649 | 55 | 333 | 7.0 | 9.0 | 0.00 | 0.00 | 0.00 | 75 | 1016.9 |
| 20260507155149 | 55 | 331 | 5.0 | 9.0 | 0.00 | 0.00 | 0.00 | 76 | 1016.9 |
| 20260507154648 | 55 | 315 | 7.0 | 10.0 | 0.00 | 0.00 | 0.00 | 77 | 1016.9 |
| 20260507154149 | 54 | 329 | 4.0 | 10.0 | 0.00 | 0.00 | 0.00 | 77 | 1016.9 |
| 20260507153649 | 54 | 323 | 5.0 | 10.0 | 0.00 | 0.00 | 0.00 | 78 | 1017.0 |
| 20260507153148 | 54 | 320 | 5.0 | 9.0 | 0.00 | 0.00 | 0.00 | 78 | 1016.9 |
| 20260507152649 | 54 | 323 | 5.0 | 8.0 | 0.00 | 0.00 | 0.00 | 78 | 1017.0 |
| 20260507152149 | 54 | 331 | 5.0 | 8.0 | 0.00 | 0.00 | 0.00 | 78 | 1016.9 |
| 20260507151649 | 54 | 324 | 3.0 | 8.0 | 0.00 | 0.00 | 0.00 | 79 | 1016.9 |
| 20260507151151 | 54 | 323 | 4.0 | 8.0 | 0.00 | 0.00 | 0.00 | 79 | 1016.8 |
| 20260507150648 | 54 | 320 | 6.0 | 8.0 | 0.00 | 0.00 | 0.00 | 79 | 1016.8 |
| 20260507145649 | 54 | 333 | 4.0 | 8.0 | 0.00 | 0.00 | 0.00 | 80 | 1016.8 |
| 20260507145149 | 53 | 340 | 5.0 | 7.0 | 0.00 | 0.00 | 0.00 | 80 | 1016.9 |
| 20260507144649 | 53 | 330 | 4.0 | 6.0 | 0.00 | 0.00 | 0.00 | 81 | 1016.9 |
| 20260507144151 | 53 | 323 | 3.0 | 5.0 | 0.00 | 0.00 | 0.00 | 81 | 1016.9 |
| 20260507143649 | 53 | 319 | 0.0 | 5.0 | 0.00 | 0.00 | 0.00 | 81 | 1016.9 |
| 20260507143149 | 52 | 313 | 0.0 | 5.0 | 0.00 | 0.00 | 0.00 | 82 | 1016.9 |
| 20260507142650 | 52 | 7 | 2.0 | 6.0 | 0.00 | 0.00 | 0.00 | 82 | 1016.8 |
| 20260507142149 | 52 | 2 | 1.0 | 6.0 | 0.00 | 0.00 | 0.00 | 82 | 1016.8 |
| 20260507141648 | 52 | 334 | 2.0 | 6.0 | 0.00 | 0.00 | 0.00 | 82 | 1016.8 |
| 20260507141151 | 52 | 8 | 1.0 | 4.0 | 0.00 | 0.00 | 0.00 | 82 | 1016.8 |
| 20260507140649 | 51 | 338 | 0.0 | 4.0 | 0.00 | 0.00 | 0.00 | 81 | 1016.8 |
| 20260507135649 | 51 | 0 | 0.0 | 0.0 | 0.00 | 0.00 | 0.00 | 81 | 1016.7 |
| 20260507135149 | 51 | 0 | 0.0 | 3.0 | 0.00 | 0.00 | 0.00 | 81 | 1016.6 |
| 20260507134648 | 51 | 337 | 0.0 | 3.0 | 0.00 | 0.00 | 0.00 | 80 | 1016.6 |
| 20260507134151 | 51 | 23 | 0.0 | 3.0 | 0.00 | 0.00 | 0.00 | 80 | 1016.6 |
| 20260507133649 | 51 | 0 | 0.0 | 4.0 | 0.00 | 0.00 | 0.00 | 80 | 1016.6 |
| 20260507133148 | 52 | 345 | 0.0 | 4.0 | 0.00 | 0.00 | 0.00 | 80 | 1016.6 |
| 20260507132651 | 52 | 327 | 0.0 | 4.0 | 0.00 | 0.00 | 0.00 | 80 | 1016.5 |
| 20260507132149 | 52 | 12 | 1.0 | 4.0 | 0.00 | 0.00 | 0.00 | 80 | 1016.5 |
| 20260507131649 | 52 | 26 | 0.0 | 4.0 | 0.00 | 0.00 | 0.00 | 79 | 1016.5 |
| 20260507131151 | 53 | 309 | 0.0 | 4.0 | 0.00 | 0.00 | 0.00 | 79 | 1016.5 |
| 20260507130649 | 53 | 345 | 0.0 | 2.0 | 0.00 | 0.00 | 0.00 | 79 | 1016.5 |
| 20260507130150 | 53 | 320 | 0.0 | 2.0 | 0.00 | 0.00 | 0.00 | 79 | 1016.6 |
| 20260507125648 | 53 | 306 | 0.0 | 2.0 | 0.00 | 0.00 | 0.00 | 79 | 1016.6 |
| 20260507124647 | 53 | 19 | 0.0 | 6.0 | 0.00 | 0.00 | 0.00 | 79 | 1016.6 |
| 20260507124148 | 53 | 344 | 0.0 | 6.0 | 0.00 | 0.00 | 0.00 | 79 | 1016.6 |
| 20260507123648 | 53 | 357 | 1.0 | 6.0 | 0.00 | 0.00 | 0.00 | 79 | 1016.6 |
| 20260507123148 | 53 | 317 | 3.0 | 6.0 | 0.00 | 0.00 | 0.00 | 79 | 1016.7 |
| 20260507122653 | 53 | 5 | 1.0 | 5.0 | 0.00 | 0.00 | 0.00 | 79 | 1016.7 |
| 20260507122151 | 53 | 348 | 2.0 | 9.0 | 0.00 | 0.00 | 0.00 | 79 | 1016.7 |
| 20260507121648 | 53 | 355 | 1.0 | 9.0 | 0.00 | 0.00 | 0.00 | 79 | 1016.8 |
| 20260507121151 | 53 | 347 | 2.0 | 9.0 | 0.00 | 0.00 | 0.00 | 80 | 1016.8 |
| 20260507120650 | 53 | 317 | 1.0 | 7.0 | 0.00 | 0.00 | 0.00 | 80 | 1016.9 |
| 20260507115648 | 53 | 345 | 3.0 | 6.0 | 0.00 | 0.00 | 0.00 | 80 | 1016.9 |
| 20260507114648 | 53 | 354 | 3.0 | 6.0 | 0.00 | 0.00 | 0.00 | 80 | 1016.9 |
| 20260507114151 | 53 | 1 | 2.0 | 10.0 | 0.00 | 0.00 | 0.00 | 80 | 1017.0 |
| 20260507113649 | 53 | 348 | 3.0 | 10.0 | 0.00 | 0.00 | 0.00 | 80 | 1017.0 |
| 20260507113148 | 53 | 337 | 3.0 | 10.0 | 0.00 | 0.00 | 0.00 | 80 | 1017.0 |
| 20260507112648 | 53 | 7 | 6.0 | 8.0 | 0.00 | 0.00 | 0.00 | 81 | 1017.0 |
| 20260507112150 | 53 | 336 | 2.0 | 5.0 | 0.00 | 0.00 | 0.00 | 81 | 1017.0 |
| 20260507111649 | 53 | 341 | 3.0 | 7.0 | 0.00 | 0.00 | 0.00 | 81 | 1017.1 |
| 20260507110649 | 53 | 0 | 2.0 | 7.0 | 0.00 | 0.00 | 0.00 | 81 | 1017.1 |
| 20260507110148 | 53 | 336 | 2.0 | 4.0 | 0.00 | 0.00 | 0.00 | 81 | 1017.1 |
| 20260507105650 | 53 | 0 | 0.0 | 1.0 | 0.00 | 0.00 | 0.00 | 81 | 1017.0 |
| 20260507105149 | 53 | 0 | 0.0 | 0.0 | 0.00 | 0.00 | 0.00 | 81 | 1017.1 |
| 20260507104649 | 53 | 0 | 0.0 | 0.0 | 0.00 | 0.00 | 0.00 | 81 | 1017.2 |
| 20260507104151 | 53 | 0 | 0.0 | 0.0 | 0.00 | 0.00 | 0.00 | 81 | 1017.3 |
| 20260507103649 | 53 | 0 | 0.0 | 0.0 | 0.00 | 0.00 | 0.00 | 81 | 1017.3 |
| 20260507103148 | 53 | 0 | 0.0 | 0.0 | 0.00 | 0.00 | 0.00 | 81 | 1017.4 |
| 20260507102650 | 53 | 0 | 0.0 | 0.0 | 0.00 | 0.00 | 0.00 | 81 | 1017.4 |
| 20260507102150 | 54 | 0 | 0.0 | 0.0 | 0.00 | 0.00 | 0.00 | 80 | 1017.5 |
| 20260507101649 | 54 | 0 | 0.0 | 2.0 | 0.00 | 0.00 | 0.00 | 80 | 1017.5 |
| 20260507101151 | 54 | 0 | 0.0 | 2.0 | 0.00 | 0.00 | 0.00 | 80 | 1017.5 |
| 20260507100650 | 54 | 352 | 0.0 | 2.0 | 0.00 | 0.00 | 0.00 | 80 | 1017.5 |
| 20260507095650 | 54 | 0 | 0.0 | 0.0 | 0.00 | 0.00 | 0.00 | 80 | 1017.6 |
| 20260507094648 | 54 | 0 | 0.0 | 6.0 | 0.00 | 0.00 | 0.00 | 80 | 1017.6 |
| 20260507094151 | 54 | 336 | 0.0 | 6.0 | 0.00 | 0.00 | 0.00 | 80 | 1017.7 |
| 20260507093649 | 54 | 324 | 0.0 | 4.0 | 0.00 | 0.00 | 0.00 | 80 | 1017.7 |
| 20260507093148 | 54 | 0 | 0.0 | 0.0 | 0.00 | 0.00 | 0.00 | 81 | 1017.8 |
| 20260507092650 | 54 | 0 | 0.0 | 0.0 | 0.00 | 0.00 | 0.00 | 81 | 1017.8 |
| 20260507092148 | 54 | 0 | 0.0 | 0.0 | 0.00 | 0.00 | 0.00 | 80 | 1017.8 |
| 20260507091648 | 54 | 282 | 0.0 | 0.0 | 0.00 | 0.00 | 0.00 | 80 | 1017.9 |
| 20260507091150 | 54 | 0 | 0.0 | 4.0 | 0.00 | 0.00 | 0.00 | 80 | 1017.9 |
| 20260507090648 | 54 | 0 | 0.0 | 4.0 | 0.00 | 0.00 | 0.00 | 80 | 1018.0 |
| 20260507090149 | 55 | 341 | 0.0 | 4.0 | 0.00 | 0.00 | 0.00 | 81 | 1018.0 |
| 20260507085650 | 55 | 0 | 1.0 | 4.0 | 0.00 | 0.00 | 0.00 | 81 | 1018.0 |
| 20260507085148 | 55 | 0 | 0.0 | 4.0 | 0.00 | 0.00 | 0.00 | 81 | 1018.0 |
| 20260507084649 | 55 | 338 | 0.0 | 4.0 | 0.00 | 0.00 | 0.00 | 80 | 1018.1 |
| 20260507084152 | 55 | 306 | 2.0 | 2.0 | 0.00 | 0.00 | 0.00 | 80 | 1018.1 |
| 20260507083649 | 55 | 131 | 0.0 | 2.0 | 0.00 | 0.00 | 0.00 | 80 | 1018.1 |
| 20260507083148 | 55 | 0 | 0.0 | 4.0 | 0.00 | 0.00 | 0.00 | 80 | 1018.1 |
| 20260507082148 | 55 | 0 | 0.0 | 4.0 | 0.00 | 0.00 | 0.00 | 80 | 1018.1 |
| 20260507081649 | 55 | 333 | 1.0 | 4.0 | 0.00 | 0.00 | 0.00 | 80 | 1018.1 |
| 20260507080648 | 55 | 345 | 0.0 | 7.0 | 0.00 | 0.00 | 0.00 | 80 | 1018.1 |
| 20260507075651 | 55 | 324 | 0.0 | 7.0 | 0.00 | 0.00 | 0.00 | 80 | 1018.0 |
| 20260507075148 | 55 | 347 | 2.0 | 5.0 | 0.00 | 0.00 | 0.00 | 80 | 1018.0 |
| 20260507074648 | 55 | 345 | 0.0 | 9.0 | 0.00 | 0.00 | 0.00 | 80 | 1018.0 |
| 20260507074151 | 55 | 355 | 3.0 | 9.0 | 0.00 | 0.00 | 0.00 | 80 | 1018.1 |
| 20260507073648 | 55 | 320 | 3.0 | 9.0 | 0.00 | 0.00 | 0.00 | 81 | 1018.1 |
| 20260507073148 | 55 | 350 | 1.0 | 7.0 | 0.00 | 0.00 | 0.00 | 81 | 1018.1 |
| 20260507072649 | 55 | 320 | 4.0 | 5.0 | 0.00 | 0.00 | 0.00 | 81 | 1018.0 |
| 20260507072148 | 55 | 352 | 2.0 | 5.0 | 0.00 | 0.00 | 0.00 | 81 | 1018.0 |
| 20260507071151 | 55 | 357 | 3.0 | 7.0 | 0.00 | 0.00 | 0.00 | 81 | 1018.0 |
| 20260507070649 | 55 | 351 | 2.0 | 7.0 | 0.00 | 0.00 | 0.00 | 81 | 1018.1 |
| 20260507070148 | 55 | 347 | 0.0 | 7.0 | 0.00 | 0.00 | 0.00 | 81 | 1018.0 |
| 20260507065649 | 55 | 0 | 0.0 | 5.0 | 0.00 | 0.00 | 0.00 | 81 | 1018.1 |
| 20260507065148 | 55 | 326 | 1.0 | 5.0 | 0.00 | 0.00 | 0.00 | 81 | 1018.0 |
| 20260507064648 | 55 | 334 | 1.0 | 10.0 | 0.00 | 0.00 | 0.00 | 81 | 1018.0 |
| 20260507064150 | 55 | 326 | 5.0 | 10.0 | 0.00 | 0.00 | 0.00 | 81 | 1018.1 |
| 20260507063648 | 55 | 322 | 5.0 | 10.0 | 0.00 | 0.00 | 0.00 | 81 | 1018.1 |
| 20260507063148 | 55 | 340 | 3.0 | 3.0 | 0.00 | 0.00 | 0.00 | 81 | 1018.1 |
| 20260507062650 | 55 | 319 | 0.0 | 6.0 | 0.00 | 0.00 | 0.00 | 81 | 1018.2 |
| 20260507062148 | 55 | 338 | 1.0 | 6.0 | 0.00 | 0.00 | 0.00 | 81 | 1018.2 |
| 20260507061649 | 55 | 348 | 2.0 | 6.0 | 0.00 | 0.00 | 0.00 | 81 | 1018.2 |
| 20260507061150 | 55 | 340 | 2.0 | 4.0 | 0.00 | 0.00 | 0.00 | 81 | 1018.2 |
| 20260507060648 | 55 | 340 | 1.0 | 7.0 | 0.00 | 0.00 | 0.00 | 81 | 1018.2 |
| 20260507060148 | 55 | 350 | 0.0 | 7.0 | 0.00 | 0.00 | 0.00 | 81 | 1018.2 |
| 20260507055650 | 55 | 345 | 0.0 | 7.0 | 0.00 | 0.00 | 0.00 | 81 | 1018.3 |
| 20260507055148 | 55 | 333 | 3.0 | 9.0 | 0.00 | 0.00 | 0.00 | 81 | 1018.3 |
| 20260507054150 | 55 | 344 | 1.0 | 9.0 | 0.00 | 0.00 | 0.00 | 81 | 1018.3 |
| 20260507053648 | 55 | 337 | 6.0 | 7.0 | 0.00 | 0.00 | 0.00 | 81 | 1018.3 |
| 20260507053148 | 56 | 337 | 5.0 | 7.0 | 0.00 | 0.00 | 0.00 | 82 | 1018.3 |
| 20260507052148 | 56 | 324 | 3.0 | 7.0 | 0.00 | 0.00 | 0.00 | 82 | 1018.4 |
| 20260507051648 | 56 | 330 | 2.0 | 6.0 | 0.00 | 0.00 | 0.00 | 82 | 1018.4 |
| 20260507051151 | 56 | 345 | 3.0 | 6.0 | 0.00 | 0.00 | 0.00 | 82 | 1018.4 |
| 20260507050648 | 56 | 317 | 4.0 | 5.0 | 0.00 | 0.00 | 0.00 | 82 | 1018.4 |
| 20260507050148 | 56 | 308 | 2.0 | 3.0 | 0.00 | 0.00 | 0.00 | 82 | 1018.4 |
| 20260507045650 | 56 | 315 | 2.0 | 7.0 | 0.00 | 0.00 | 0.00 | 82 | 1018.3 |
| 20260507045149 | 56 | 18 | 3.0 | 7.0 | 0.00 | 0.00 | 0.00 | 82 | 1018.4 |
| 20260507044648 | 56 | 333 | 1.0 | 7.0 | 0.00 | 0.00 | 0.00 | 82 | 1018.4 |
| 20260507044150 | 56 | 15 | 4.0 | 11.0 | 0.00 | 0.00 | 0.00 | 82 | 1018.4 |
| 20260507043649 | 56 | 347 | 3.0 | 11.0 | 0.00 | 0.00 | 0.00 | 82 | 1018.5 |
| 20260507043149 | 56 | 319 | 5.0 | 11.0 | 0.00 | 0.00 | 0.00 | 82 | 1018.5 |
| 20260507042149 | 56 | 322 | 5.0 | 11.0 | 0.00 | 0.00 | 0.00 | 82 | 1018.4 |
| 20260507041648 | 56 | 302 | 6.0 | 10.0 | 0.00 | 0.00 | 0.00 | 82 | 1018.5 |
| 20260507041152 | 56 | 5 | 6.0 | 8.0 | 0.00 | 0.00 | 0.00 | 82 | 1018.4 |
| 20260507040648 | 56 | 326 | 4.0 | 8.0 | 0.00 | 0.00 | 0.00 | 82 | 1018.4 |
| 20260507035649 | 56 | 7 | 5.0 | 7.0 | 0.00 | 0.00 | 0.00 | 82 | 1018.4 |
| 20260507035149 | 56 | 348 | 4.0 | 7.0 | 0.00 | 0.00 | 0.00 | 82 | 1018.3 |
| 20260507034150 | 56 | 330 | 3.0 | 9.0 | 0.00 | 0.00 | 0.00 | 82 | 1018.3 |
| 20260507033648 | 56 | 350 | 3.0 | 9.0 | 0.00 | 0.00 | 0.00 | 82 | 1018.2 |
| 20260507033148 | 56 | 348 | 5.0 | 9.0 | 0.00 | 0.00 | 0.00 | 82 | 1018.2 |
| 20260507032649 | 56 | 312 | 5.0 | 8.0 | 0.00 | 0.00 | 0.00 | 82 | 1018.2 |
| 20260507032150 | 56 | 347 | 4.0 | 8.0 | 0.00 | 0.00 | 0.00 | 82 | 1018.2 |
| 20260507031649 | 56 | 327 | 4.0 | 8.0 | 0.00 | 0.00 | 0.00 | 82 | 1018.2 |
| 20260507031151 | 57 | 319 | 4.0 | 5.0 | 0.00 | 0.00 | 0.00 | 82 | 1018.1 |
| 20260507030148 | 57 | 327 | 1.0 | 5.0 | 0.00 | 0.00 | 0.00 | 82 | 1018.1 |
| 20260507025650 | 57 | 331 | 3.0 | 6.0 | 0.00 | 0.00 | 0.00 | 82 | 1018.2 |
| 20260507025148 | 57 | 337 | 4.0 | 6.0 | 0.00 | 0.00 | 0.00 | 82 | 1018.2 |
| 20260507024648 | 57 | 322 | 4.0 | 6.0 | 0.00 | 0.00 | 0.00 | 81 | 1018.1 |
| 20260507024150 | 57 | 351 | 4.0 | 6.0 | 0.00 | 0.00 | 0.00 | 81 | 1018.1 |
| 20260507023648 | 57 | 333 | 4.0 | 6.0 | 0.00 | 0.00 | 0.00 | 81 | 1018.0 |
| 20260507023148 | 57 | 329 | 1.0 | 6.0 | 0.00 | 0.00 | 0.00 | 81 | 1018.1 |
| 20260507022649 | 57 | 330 | 3.0 | 6.0 | 0.00 | 0.00 | 0.00 | 81 | 1018.0 |
| 20260507022149 | 57 | 343 | 3.0 | 5.0 | 0.00 | 0.00 | 0.00 | 81 | 1018.0 |
| 20260507021648 | 57 | 350 | 4.0 | 8.0 | 0.00 | 0.00 | 0.00 | 81 | 1018.0 |
| 20260507021150 | 57 | 313 | 3.0 | 8.0 | 0.00 | 0.00 | 0.00 | 81 | 1018.1 |
| 20260507020649 | 58 | 341 | 4.0 | 8.0 | 0.00 | 0.00 | 0.00 | 81 | 1018.1 |
| 20260507020148 | 58 | 337 | 5.0 | 6.0 | 0.00 | 0.00 | 0.00 | 80 | 1018.1 |
| 20260507015649 | 58 | 357 | 4.0 | 6.0 | 0.00 | 0.00 | 0.00 | 80 | 1018.1 |
| 20260507015149 | 58 | 338 | 2.0 | 6.0 | 0.00 | 0.00 | 0.00 | 80 | 1018.1 |
| 20260507014648 | 58 | 319 | 3.0 | 6.0 | 0.00 | 0.00 | 0.00 | 80 | 1018.2 |